{"data":{"norad_id":67404,"epoch":"2026-09-19T06:12:02.863008Z","epoch_age_seconds":182520,"freshness":"STALE","line1":"1 67404U 26005A   26262.25836647  .00009984  00000+0  37177-3 0  9990","line2":"2 67404  42.9986 224.5253 0001152 266.0735  93.9985 15.27585168 38307","mean_motion":15.27585168,"eccentricity":0.0001152,"inclination_deg":42.9986,"raan_deg":224.5253,"arg_perigee_deg":266.0735,"mean_anomaly_deg":93.9985,"bstar":0.00037177,"rev_number":3830,"period_min":94.266429798171,"perigee_km":482.24321437654,"apogee_km":483.82402808767,"semimajor_km":6861.1706212321,"source":"CELESTRAK","updated_at":"2026-09-20T09:00:43.518294Z"}}